Starlink 4415

operational
NORAD ID: 53465 Int'l Des: 2022-099 Owner: SPXS Country: US Constellation: starlink
LEOCIRCULARRETROGRADESSO

Über Starlink 4415

Beschreibung wird geladen...

Live-Position

3D-Globus wird geladen...

Nächste Überflüge

Höhenverlauf

Altitude vs Time

uPlot chart will show altitude changes over time

Zweizeiliger Elementsatz

1 53465U 22099A 25259.09732946 .00192776 00000-0 14076-1 0 9999
2 53465 97.6098 19.2834 0010696 41.5537 318.6500 15.02640824169773
Epoch: 16. Sept. 2025 • Age: 12 hours

Aktueller Status

Höhe 584.7 km
Geschwindigkeit 7.56 km/s
Subsatellitenpunkt -49.49°S, 23.09°W
Startdatum 12. Aug. 2022
Alter 3 years
Typ internet

Technische Details

Klassifizierung Payload
Masse 300.00 kg
Trockenmasse 275.00 kg
Gesamtmasse 300.00 kg
Länge 0.20 m
Durchmesser 2.80 m
Spannweite 9.00 m
Form Box + pan
Hersteller SPXS
Bus-Typ Starlink
Phasenstatus In Orbit
Besitzer/Staat SPXS/US

Große Konstellationen

Loading constellations...